When you browse on this site, cookies collect data to enhance your experience and personalize the content and advertising you see.
Visit our Privacy Policy to learn more. By continuing to use the site, you agree to this use of cookies and data.
  • In Germany
  • List of Countries
  • For 7 days
  • Water Temperature
  • Satellite Maps
  • Weather Map
  • Weather Widgets
  • user-avatar
    Login

    Hourly Weather Syanky

    Today, 18 February, Monday

    Time Temperature Precipitation Wind Pressure Humidity
    00:00 -1°C° 0 mm 1 mps 695 mmHg 92%
    01:00 -1°C° 0 mm 1 mps 695 mmHg 91%
    02:00 -1°C° 0 mm 1 mps 694 mmHg 90%
    03:00 -1°C° 0 mm 1 mps 694 mmHg 90%
    04:00 -1°C° 0 mm 1 mps 694 mmHg 90%
    05:00 -1°C° 0 mm 1 mps 694 mmHg 89%
    06:00 -1°C° 0 mm 1 mps 694 mmHg 89%
    07:00 -1°C° 0 mm 1 mps 694 mmHg 89%
    08:00 -1°C° 0 mm 1 mps 694 mmHg 88%
    09:00 +1°C° 0 mm 1 mps 694 mmHg 85%
    10:00 +3°C° 0 mm 1 mps 695 mmHg 82%
    11:00 +5°C° 0 mm 1 mps 695 mmHg 80%
    12:00 +5°C° 0 mm 1 mps 695 mmHg 78%
    13:00 +6°C° 0 mm 1 mps 695 mmHg 77%
    14:00 +7°C° 0 mm 1 mps 695 mmHg 75%
    15:00 +6°C° 0 mm 1 mps 694 mmHg 80%
    16:00 +5°C° 0 mm 1 mps 694 mmHg 85%
    17:00 +4°C° 0 mm 1 mps 693 mmHg 90%
    18:00 +3°C° 0 mm 1 mps 693 mmHg 91%
    19:00 +1°C° 0 mm 1 mps 693 mmHg 93%
    20:00 0°C° 0 mm 1 mps 692 mmHg 94%
    21:00 0°C° 0 mm 1 mps 692 mmHg 93%
    22:00 0°C° 0 mm 1 mps 692 mmHg 92%
    23:00 0°C° 0 mm 1 mps 692 mmHg 91%

    Tomorrow, 19 February, Tuesday

    Time Temperature Precipitation Wind Pressure Humidity
    00:00 -1°C° 0 mm 1 mps 692 mmHg 90%
    01:00 -1°C° 0 mm 1 mps 692 mmHg 90%
    02:00 -1°C° 0 mm 1 mps 692 mmHg 90%
    03:00 -1°C° 0 mm 1 mps 692 mmHg 90%
    04:00 -1°C° 0 mm 1 mps 692 mmHg 90%
    05:00 -3°C° 0 mm 2 mps 691 mmHg 90%
    06:00 -3°C° 0 mm 2 mps 691 mmHg 90%
    07:00 -3°C° 0 mm 2 mps 691 mmHg 89%
    08:00 -3°C° 0 mm 2 mps 691 mmHg 89%
    09:00 -1°C° 0 mm 2 mps 691 mmHg 84%
    10:00 +2°C° 0 mm 2 mps 691 mmHg 78%
    11:00 +3°C° 0 mm 3 mps 692 mmHg 73%
    12:00 +3°C° 0 mm 3 mps 691 mmHg 72%
    13:00 +4°C° 0 mm 3 mps 691 mmHg 71%
    14:00 +4°C° 0 mm 3 mps 691 mmHg 69%
    15:00 +3°C° 0 mm 3 mps 690 mmHg 74%
    16:00 +2°C° 0 mm 3 mps 690 mmHg 78%
    17:00 +2°C° 0 mm 3 mps 689 mmHg 82%
    18:00 +1°C° 0 mm 3 mps 689 mmHg 84%
    19:00 0°C° 0 mm 3 mps 689 mmHg 85%
    20:00 -1°C° 0 mm 3 mps 689 mmHg 87%
    21:00 -1°C° 0 mm 2 mps 689 mmHg 87%
    22:00 -1°C° 0 mm 2 mps 689 mmHg 88%
    23:00 -1°C° 0 mm 2 mps 689 mmHg 88%

    Day after tomorrow, 20 February, Wednesday

    Time Temperature Precipitation Wind Pressure Humidity
    00:00 -2°C° 0 mm 2 mps 689 mmHg 89%
    01:00 -2°C° 0 mm 2 mps 689 mmHg 90%
    02:00 -2°C° 0 mm 2 mps 689 mmHg 91%
    03:00 -2°C° 0 mm 2 mps 689 mmHg 92%
    04:00 -2°C° 0 mm 2 mps 689 mmHg 92%
    05:00 0°C° 0 mm 1 mps 689 mmHg 92%
    06:00 0°C° 0.3 mm 1 mps 689 mmHg 92%
    07:00 0°C° 0.3 mm 1 mps 689 mmHg 93%
    08:00 +1°C° 0.3 mm 1 mps 689 mmHg 93%
    09:00 +1°C° 0.1 mm 1 mps 690 mmHg 89%
    10:00 +2°C° 0.1 mm 1 mps 690 mmHg 86%
    11:00 +2°C° 0.1 mm 2 mps 691 mmHg 83%
    12:00 +2°C° 0.1 mm 2 mps 691 mmHg 83%
    13:00 +2°C° 0.1 mm 2 mps 691 mmHg 83%
    14:00 +1°C° 0.1 mm 3 mps 691 mmHg 84%
    15:00 +2°C° 0.1 mm 2 mps 691 mmHg 83%
    16:00 +1°C° 0.1 mm 2 mps 691 mmHg 82%
    17:00 +1°C° 0.1 mm 2 mps 691 mmHg 81%
    18:00 -1°C° 0 mm 2 mps 692 mmHg 84%
    19:00 0°C° 0 mm 1 mps 692 mmHg 87%
    20:00 -1°C° 0 mm 1 mps 692 mmHg 90%
    21:00 -1°C° 0 mm 1 mps 692 mmHg 91%
    22:00 -1°C° 0 mm 1 mps 692 mmHg 91%
    23:00 -1°C° 0 mm 1 mps 693 mmHg 92%

    21 February, Thursday

    Time Temperature Precipitation Wind Pressure Humidity
    00:00 -1°C° 0 mm 1 mps 693 mmHg 92%
    01:00 -2°C° 0 mm 1 mps 693 mmHg 92%
    02:00 -2°C° 0 mm 1 mps 693 mmHg 92%
    03:00 -2°C° 0 mm 1 mps 693 mmHg 92%
    04:00 -2°C° 0 mm 1 mps 693 mmHg 92%
    05:00 -2°C° 0 mm 1 mps 693 mmHg 92%
    06:00 -1°C° 0 mm 1 mps 693 mmHg 90%
    07:00 0°C° 0 mm 1 mps 693 mmHg 88%
    08:00 -2°C° 0 mm 2 mps 693 mmHg 87%
    09:00 -1°C° 0.1 mm 2 mps 693 mmHg 85%
    10:00 -1°C° 0.1 mm 3 mps 693 mmHg 84%
    11:00 -1°C° 0.1 mm 4 mps 693 mmHg 82%
    12:00 -1°C° 0.1 mm 4 mps 693 mmHg 82%
    13:00 -1°C° 0.1 mm 4 mps 693 mmHg 81%
    14:00 0°C° 0.1 mm 4 mps 693 mmHg 81%
    15:00 0°C° 0.4 mm 3 mps 693 mmHg 84%
    16:00 0°C° 0.4 mm 3 mps 692 mmHg 87%
    17:00 0°C° 0.4 mm 3 mps 692 mmHg 90%
    18:00 -1°C° 0.4 mm 2 mps 692 mmHg 92%
    19:00 -1°C° 0.4 mm 2 mps 692 mmHg 94%
    20:00 -1°C° 0.4 mm 2 mps 692 mmHg 95%
    21:00 +1°C° 0.3 mm 1 mps 692 mmHg 96%
    22:00 +1°C° 0.3 mm 1 mps 693 mmHg 96%
    23:00 +1°C° 0.3 mm 1 mps 693 mmHg 97%

    22 February, Friday

    Time Temperature Precipitation Wind Pressure Humidity
    00:00 +1°C° 0.3 mm 1 mps 693 mmHg 97%
    01:00 +1°C° 0.3 mm 1 mps 692 mmHg 97%
    02:00 +1°C° 0.3 mm 1 mps 692 mmHg 98%
    03:00 +1°C° 0.6 mm 1 mps 692 mmHg 98%
    04:00 +1°C° 0.6 mm 1 mps 692 mmHg 98%
    05:00 +1°C° 0.6 mm 1 mps 692 mmHg 98%
    06:00 +1°C° 1 mm 1 mps 692 mmHg 98%
    07:00 -1°C° 1 mm 2 mps 693 mmHg 98%
    08:00 +1°C° 1 mm 2 mps 693 mmHg 98%
    09:00 -1°C° 0.5 mm 3 mps 694 mmHg 96%
    10:00 -2°C° 0.5 mm 4 mps 695 mmHg 95%
    11:00 -4°C° 0.5 mm 5 mps 695 mmHg 93%
    12:00 -4°C° 0.1 mm 5 mps 696 mmHg 90%
    13:00 -5°C° 0.1 mm 6 mps 697 mmHg 87%
    14:00 -5°C° 0.1 mm 6 mps 697 mmHg 85%
    15:00 -6°C° 0 mm 6 mps 698 mmHg 82%
    16:00 -8°C° 0 mm 6 mps 698 mmHg 80%
    17:00 -9°C° 0 mm 6 mps 699 mmHg 77%
    18:00 -10°C° 0 mm 6 mps 700 mmHg 78%
    19:00 -10°C° 0 mm 6 mps 701 mmHg 78%
    20:00 -11°C° 0 mm 5 mps 701 mmHg 79%
    21:00 -12°C° 0 mm 5 mps 702 mmHg 79%
    22:00 -11°C° 0 mm 4 mps 702 mmHg 79%
    23:00 -10°C° 0 mm 3 mps 703 mmHg 78%

    23 February, Saturday

    Time Temperature Precipitation Wind Pressure Humidity
    00:00 -10°C° 0 mm 2 mps 703 mmHg 80%
    01:00 -10°C° 0 mm 2 mps 703 mmHg 82%
    02:00 -9°C° 0 mm 1 mps 704 mmHg 83%
    03:00 -9°C° 0 mm 1 mps 704 mmHg 83%
    04:00 -9°C° 0 mm 1 mps 703 mmHg 82%
    05:00 -9°C° 0 mm 1 mps 703 mmHg 81%
    06:00 -9°C° 0 mm 1 mps 703 mmHg 77%
    07:00 -8°C° 0 mm 1 mps 703 mmHg 73%
    08:00 -8°C° 0 mm 0 mps 703 mmHg 69%
    09:00 -6°C° 0 mm 1 mps 703 mmHg 62%
    10:00 -3°C° 0 mm 1 mps 703 mmHg 54%
    11:00 -2°C° 0 mm 1 mps 704 mmHg 47%
    12:00 -1°C° 0 mm 1 mps 703 mmHg 49%
    13:00 -1°C° 0 mm 1 mps 702 mmHg 51%
    14:00 -3°C° 0 mm 2 mps 702 mmHg 53%
    15:00 -4°C° 0 mm 2 mps 701 mmHg 56%
    16:00 -4°C° 0 mm 2 mps 700 mmHg 59%
    17:00 -4°C° 0 mm 2 mps 700 mmHg 61%
    18:00 -4°C° 0 mm 2 mps 699 mmHg 65%
    19:00 -2°C° 0 mm 1 mps 699 mmHg 69%
    20:00 -3°C° 0 mm 1 mps 698 mmHg 72%
    21:00 -2°C° 0.1 mm 1 mps 698 mmHg 77%
    22:00 -2°C° 0.1 mm 1 mps 698 mmHg 81%
    23:00 -2°C° 0.1 mm 1 mps 698 mmHg 86%
    Show more